Weather History for Beaufort MCAS, SC

Change the Weather History Date:

Tuesday, October 22, 2013

  Actual Average Record
Temperature  
Mean Temperature 66 °F -  
Max Temperature 69 °F 76 °F 89 °F (1931)
Min Temperature 63 °F 56 °F 38 °F (1954)
Cooling Degree Days 1    
Growing Degree Days 16 (Base 50)    
Moisture  
Dew Point 60 °F    
Average Humidity 83    
Maximum Humidity 93    
Minimum Humidity 63    
Precipitation  
Precipitation 0.00 in - - ()
Sea Level Pressure  
Sea Level Pressure 29.95 in    
Wind  
Wind Speed 2 mph (NE)    
Max Wind Speed 5 mph    
Max Gust Speed -    
Visibility 9 miles    
Events Rain    
Averages and records for this station are not official NWS values.
T = Trace of Precipitation, MM = Missing Value Source: NWS Daily Summary

Daily Weather History Graph

Daily Weather History Graph

Search for Another Location

Airport:

Trip Planner

Search our weather history database for the weather conditions in past years. The results will help you decide how hot, cold, wet, or windy it might be!

Date:

Astronomy

Oct. 22, 2013 Rise Set
Actual Time 7:32 AM EDT 6:41 PM EDT
Civil Twilight 7:07 AM EDT 7:06 PM EDT
Nautical Twilight 6:38 AM EDT 7:35 PM EDT
Astronomical Twilight 6:09 AM EDT 8:04 PM EDT
Moon 9:29 PM EDT (10/22) 10:50 AM EDT (10/22)
Length of Visible Light 11h 59m
Length of Day
11h 09m
Waning Gibbous, 87% of the Moon is Illuminated
Oct 22
Waning Gibbous
Oct 26
Last Quarter
Nov 3
New
Nov 10
First Quarter
Nov 17
Full

Hourly Weather History & Observations

Time (EDT) Temp. Dew Point Humidity Pressure Visibility Wind Dir Wind Speed Gust Speed Precip Events Conditions
12:56 AM 66.0 °F 60.1 °F 81% 30.03 in 10.0 mi Calm Calm - N/A   Clear
1:56 AM 64.0 °F 60.1 °F 87% 30.03 in 10.0 mi NNE 3.5 mph - N/A   Clear
2:56 AM 64.9 °F 61.0 °F 87% 30.02 in 10.0 mi Calm Calm - N/A   Clear
3:56 AM 64.9 °F 61.0 °F 87% 29.99 in 10.0 mi Calm Calm - N/A   Clear
4:56 AM 63.0 °F 60.1 °F 90% 29.99 in 9.0 mi NNE 3.5 mph - N/A   Clear
5:56 AM 63.0 °F 60.1 °F 90% 29.98 in 10.0 mi Calm Calm - N/A   Clear
6:56 AM 63.0 °F 60.1 °F 90% 29.99 in 10.0 mi NE 4.6 mph - N/A   Mostly Cloudy
7:56 AM 64.0 °F 60.1 °F 87% 29.99 in 10.0 mi North 3.5 mph - N/A   Mostly Cloudy
8:56 AM 64.0 °F 60.1 °F 87% 29.99 in 10.0 mi Calm Calm - N/A   Overcast
9:56 AM 66.0 °F 60.1 °F 81% 29.99 in 10.0 mi Calm Calm - N/A   Overcast
10:56 AM 68.0 °F 57.9 °F 70% 29.98 in 10.0 mi NNE 3.5 mph - N/A   Overcast
11:56 AM 69.1 °F 55.9 °F 63% 29.96 in 10.0 mi East 3.5 mph - N/A   Overcast
12:56 PM 66.9 °F 59.0 °F 76% 29.95 in 5.0 mi ENE 4.6 mph - 0.00 in Rain Light Rain
1:56 PM 68.0 °F 60.1 °F 76% 29.93 in 10.0 mi Calm Calm - 0.00 in   Overcast
2:56 PM 69.1 °F 59.0 °F 70% 29.91 in 10.0 mi North 4.6 mph - N/A   Mostly Cloudy
3:56 PM 68.0 °F 59.0 °F 73% 29.89 in 10.0 mi NE 4.6 mph - N/A   Overcast
4:56 PM 66.9 °F 59.0 °F 76% 29.89 in 10.0 mi NE 4.6 mph - 0.00 in   Overcast
5:56 PM 66.0 °F 62.1 °F 87% 29.89 in 10.0 mi Calm Calm - 0.00 in   Overcast
6:56 PM 66.0 °F 61.0 °F 84% 29.88 in 10.0 mi Calm Calm - N/A   Overcast
7:56 PM 64.9 °F 61.0 °F 87% 29.89 in 9.0 mi Calm Calm - N/A Rain Light Rain
8:56 PM 64.9 °F 62.1 °F 90% 29.89 in 10.0 mi NNW 4.6 mph - N/A   Overcast
9:56 PM 64.0 °F 62.1 °F 93% 29.89 in 4.0 mi Calm Calm - N/A Rain Light Rain
10:56 PM 63.0 °F 61.0 °F 93% 29.89 in 5.0 mi SSE 3.5 mph - N/A   Overcast
11:56 PM 64.0 °F 61.0 °F 90% 29.87 in 9.0 mi SW 3.5 mph - N/A Rain Light Rain